Location: Caltech
(34.1382°N, 118.1253°W)
Time: 13:48:22
(UTC-07:00)

Iridium 21 - Visible Passes

Search period start: 26 June 2017 00:00
Search period end: 06 July 2017 00:00
Orbit: 776 x 779 km, 86.4° (Epoch: 26 June)

Date Brightness Start Highest point End Pass type
(mag) Time Alt. Az. Time Alt. Az. Time Alt. Az.
26 Jun 5.5 21:02:09 10° S 21:07:18 68° E 21:12:29 10° N visible
26 Jun 8.4 22:47:14 10° W 22:48:29 11° WNW 22:49:45 10° WNW visible
27 Jun 6.3 20:29:15 10° SSE 20:33:55 34° E 20:38:35 10° NNE visible
27 Jun 7.8 22:10:42 10° SW 22:14:39 22° W 22:18:36 10° NNW visible
28 Jun 6.8 21:36:04 10° SSW 21:40:57 41° W 21:45:52 10° NNW visible
29 Jun 5.6 21:02:10 10° S 21:07:22 81° W 21:12:36 10° N visible
30 Jun 5.8 20:28:53 10° SSE 20:33:54 51° E 20:38:57 10° NNE visible
30 Jun 8.2 22:12:06 10° WSW 22:14:54 14° WNW 22:17:42 10° NW visible
01 Jul 7.5 21:36:43 10° SW 21:41:07 28° W 21:45:34 10° NNW visible
02 Jul 6.3 21:02:24 10° SSW 21:07:28 54° W 21:12:34 10° N visible
03 Jul 5.5 20:28:44 10° S 20:33:56 78° E 20:39:09 10° N visible
04 Jul 8.2 21:37:43 10° WSW 21:41:20 19° W 21:44:59 10° NW visible
05 Jul 7.2 21:02:51 10° SSW 21:07:36 36° W 21:12:23 10° NNW visible
